VE2XOX Weather Reports


time (UTC)temp
C
wind
direction
speed
KPH
gust
KPH
rain 1hr
cm
rain 24hr
cm
rain mn
cm
humidity
%
barometer
mb
20260504050512 2 304 0.0 1.6 0.00 0.00 0.00 68 1004.8
20260504050111 1 304 0.0 0.0 0.00 0.00 0.00 68 1005.2
20260504050017 2 305 0.0 3.2 0.00 0.00 0.00 68 1004.8
20260504045530 2 304 0.0 3.2 0.00 0.00 0.00 68 1004.9
20260504045026 2 304 0.0 0.0 0.00 0.00 0.00 68 1004.9
20260504044549 1 304 0.0 0.0 0.00 0.00 0.00 69 1005.4
20260504044530 2 304 0.0 0.0 0.00 0.00 0.00 69 1005.0
20260504044015 2 304 0.0 0.0 0.00 0.00 0.00 70 1005.0
20260504043528 1 304 0.0 1.6 0.00 0.00 0.00 70 1005.1
20260504043056 1 304 0.0 1.6 0.00 0.00 0.00 71 1005.4
20260504043030 1 304 0.0 1.6 0.00 0.00 0.00 71 1005.1
20260504042513 1 304 0.0 0.0 0.00 0.00 0.00 71 1005.2
20260504042024 1 304 0.0 1.6 0.00 0.00 0.00 71 1005.2
20260504041544 1 304 0.0 1.6 0.00 0.00 0.00 72 1005.5
20260504041527 1 304 0.0 1.6 0.00 0.00 0.00 72 1005.1
20260504041031 1 304 0.0 1.6 0.00 0.00 0.00 73 1005.3
20260504040515 1 304 0.0 0.0 0.00 0.00 0.00 74 1005.2
20260504040037 0 304 0.0 0.0 0.00 0.00 0.00 75 1005.6
20260504040019 1 304 0.0 0.0 0.00 0.00 0.00 75 1005.2
20260504035532 1 304 0.0 0.0 0.00 0.00 0.00 75 1005.2
20260504035017 1 304 0.0 0.0 0.00 0.00 0.00 74 1005.3
20260504034541 1 304 0.0 0.0 0.00 0.00 0.00 73 1005.6
20260504034523 1 304 0.0 0.0 0.00 0.00 0.00 73 1005.3
20260504034032 1 304 0.0 0.0 0.00 0.00 0.00 73 1005.3
20260504033518 1 304 0.0 0.0 0.00 0.00 0.00 72 1005.3
20260504033040 1 304 0.0 0.0 0.00 0.00 0.00 72 1005.6
20260504033021 1 304 0.0 0.0 0.00 0.00 0.00 72 1005.2
20260504032534 1 304 0.0 0.0 0.00 0.00 0.00 71 1005.2
20260504032021 1 304 0.0 1.6 0.00 0.00 0.00 71 1005.2
20260504031555 1 304 0.0 1.6 0.00 0.00 0.00 70 1005.5
20260504031526 1 304 0.0 1.6 0.00 0.00 0.00 70 1005.2
20260504031037 2 304 0.0 0.0 0.00 0.00 0.00 70 1005.1
20260504030523 2 304 0.0 0.0 0.00 0.00 0.00 69 1005.1
20260504030049 1 304 0.0 0.0 0.00 0.00 0.00 68 1005.5
20260504030028 2 304 0.0 0.0 0.00 0.00 0.00 68 1005.1
20260504025512 2 304 0.0 1.6 0.00 0.00 0.00 68 1005.1
20260504025024 2 304 0.0 1.6 0.00 0.00 0.00 67 1005.1
20260504024548 2 304 0.0 0.0 0.00 0.00 0.00 67 1005.5
20260504024528 2 304 0.0 0.0 0.00 0.00 0.00 67 1005.1
20260504024012 2 304 0.0 0.0 0.00 0.00 0.00 67 1005.1
20260504023525 2 304 0.0 0.0 0.00 0.00 0.00 67 1005.1
20260504023050 2 304 0.0 0.0 0.00 0.00 0.00 66 1005.5
20260504023031 2 304 0.0 0.0 0.00 0.00 0.00 66 1005.2
20260504022516 2 304 0.0 0.0 0.00 0.00 0.00 66 1005.2
20260504022011 2 304 0.0 0.0 0.00 0.00 0.00 65 1005.2
20260504021554 2 304 0.0 0.0 0.00 0.00 0.00 66 1005.6
20260504021518 2 304 0.0 0.0 0.00 0.00 0.00 67 1005.2
20260504021025 2 304 0.0 0.0 0.00 0.00 0.00 68 1005.2
20260504020516 2 304 0.0 0.0 0.00 0.00 0.00 67 1005.2
20260504020037 2 304 0.0 0.0 0.00 0.00 0.00 66 1005.5
20260504020020 2 304 0.0 0.0 0.00 0.00 0.00 66 1005.2
20260504015530 3 304 0.0 0.0 0.00 0.00 0.00 65 1005.2
20260504015016 3 304 0.0 0.0 0.00 0.00 0.00 64 1005.2
20260504014553 3 304 0.0 0.0 0.00 0.00 0.00 62 1005.5
20260504014522 3 304 0.0 0.0 0.00 0.00 0.00 62 1005.1
20260504014014 3 304 0.0 0.0 0.00 0.00 0.00 61 1005.1
20260504013525 3 304 0.0 0.0 0.00 0.00 0.00 60 1005.1
20260504013048 3 304 0.0 0.0 0.00 0.00 0.00 59 1005.4
20260504013011 4 304 0.0 0.0 0.00 0.00 0.00 58 1005.0
20260504012518 5 304 0.0 0.0 0.00 0.00 0.00 58 1005.1
20260504012030 5 304 0.0 0.0 0.00 0.00 0.00 55 1005.1
20260504011554 5 304 0.0 0.0 0.00 0.00 0.00 55 1005.4
20260504011516 5 304 0.0 0.0 0.00 0.00 0.00 55 1005.0
20260504011022 5 304 0.0 0.0 0.00 0.00 0.00 55 1005.0
20260504010515 5 304 0.0 1.6 0.00 0.00 0.00 53 1005.0
20260504010114 5 304 0.0 3.2 0.00 0.00 0.00 52 1005.3
20260504010019 5 304 0.0 3.2 0.00 0.00 0.00 52 1004.9
20260504005523 5 304 1.6 3.2 0.00 0.00 0.00 52 1004.9
20260504005016 6 312 1.6 4.8 0.00 0.00 0.00 51 1004.9
20260504004601 5 310 0.0 4.8 0.00 0.00 0.00 51 1005.2
20260504004521 6 316 1.6 4.8 0.00 0.00 0.00 51 1004.9
20260504004024 6 298 1.6 6.4 0.00 0.00 0.00 50 1004.9
20260504003517 6 355 3.2 9.7 0.00 0.00 0.00 50 1004.8
20260504003102 6 298 3.2 9.7 0.00 0.00 0.00 49 1005.1
20260504003023 6 336 3.2 9.7 0.00 0.00 0.00 50 1004.8
20260504002529 6 302 1.6 8.0 0.00 0.00 0.00 49 1004.7
20260504002020 6 323 3.2 9.7 0.00 0.00 0.00 48 1004.8
20260504001604 6 310 1.6 9.7 0.00 0.00 0.00 48 1005.0
20260504001525 6 310 3.2 9.7 0.00 0.00 0.00 48 1004.8
20260504001030 6 322 4.8 11.3 0.00 0.00 0.00 47 1004.8
20260504000522 7 344 4.8 11.3 0.00 0.00 0.00 47 1004.7
20260504000105 6 346 3.2 11.3 0.00 0.00 0.00 46 1005.0
20260504000025 7 331 4.8 11.3 0.00 0.00 0.00 46 1004.7
20260503235530 7 336 3.2 11.3 0.00 0.00 0.00 46 1004.6
20260503235022 7 327 3.2 11.3 0.00 0.00 0.00 46 1004.6
20260503234606 7 353 6.4 16.1 0.00 0.00 0.00 45 1005.0
20260503234528 7 324 6.4 16.1 0.00 0.00 0.00 45 1004.6
20260503234012 7 355 6.4 16.1 0.00 0.00 0.00 45 1004.7
20260503233526 8 314 8.0 14.5 0.00 0.00 0.00 44 1004.7
20260503233107 7 333 4.8 14.5 0.00 0.00 0.00 44 1005.0
20260503233027 8 98 4.8 14.5 0.00 0.00 0.00 44 1004.6
20260503232513 8 19 8.0 12.9 0.00 0.00 0.00 43 1004.7
20260503232022 8 337 6.4 17.7 0.00 0.00 0.00 43 1004.6
20260503231607 8 292 6.4 17.7 0.00 0.00 0.00 42 1004.8
20260503231511 8 33 9.7 17.7 0.00 0.00 0.00 42 1004.6
20260503231015 8 357 8.0 14.5 0.00 0.00 0.00 42 1004.5
20260503230526 8 325 6.4 16.1 0.00 0.00 0.00 42 1004.6
20260503230027 8 341 9.7 16.1 0.00 0.20 0.00 41 1004.6
20260503225513 8 20 6.4 19.3 0.00 0.20 0.00 41 1004.6
20260503225026 9 343 11.3 19.3 0.00 0.20 0.00 41 1004.6
20260503224609 8 336 6.4 14.5 0.00 0.05 0.00 41 1004.8
20260503224512 9 6 6.4 14.5 0.00 0.20 0.00 41 1004.5
20260503224018 9 318 6.4 14.5 0.00 0.20 0.00 41 1004.5
20260503223531 9 310 8.0 20.9 0.00 0.20 0.00 41 1004.4
20260503223110 8 329 11.3 20.9 0.00 0.05 0.00 41 1004.8
20260503223030 9 349 12.9 19.3 0.00 0.20 0.00 40 1004.5
20260503222517 9 322 6.4 17.7 0.00 0.20 0.00 41 1004.4
20260503222029 9 336 9.7 20.9 0.00 0.20 0.00 41 1004.5
20260503221611 8 333 8.0 20.9 0.00 0.05 0.00 41 1004.7
20260503221514 9 351 9.7 20.9 0.00 0.20 0.00 40 1004.4
20260503221021 9 291 9.7 22.5 0.00 0.20 0.00 40 1004.4
20260503220533 10 360 11.3 22.5 0.00 0.20 0.00 39 1004.4
20260503220114 9 299 4.8 16.1 0.00 0.05 0.00 41 1004.7
20260503220016 10 340 6.4 16.1 0.00 0.51 0.00 40 1004.4
20260503215523 10 42 9.7 17.7 0.00 0.51 0.00 40 1004.4
20260503215035 10 327 4.8 22.5 0.00 0.51 0.00 41 1004.4
20260503214521 10 334 11.3 20.9 0.00 0.51 0.00 40 1004.4
20260503214026 10 307 9.7 20.9 0.00 0.51 0.00 40 1004.4
20260503213512 10 315 11.3 20.9 0.00 0.51 0.00 39 1004.4
20260503213018 10 324 6.4 16.1 0.00 0.51 0.00 40 1004.4
20260503213006 9 296 6.4 16.1 0.00 0.10 0.00 40 1004.7
20260503212524 10 307 9.7 19.3 0.00 0.51 0.00 39 1004.5
20260503212030 10 14 8.0 22.5 0.00 0.51 0.00 40 1004.5
20260503211522 10 344 9.7 22.5 0.00 0.51 0.00 39 1004.5
20260503211511 9 340 9.7 22.5 0.00 0.10 0.00 39 1004.8
20260503211026 10 312 8.0 25.7 0.00 0.51 0.00 40 1004.6
20260503210513 10 338 12.9 25.7 0.00 0.51 0.00 40 1004.5
20260503210035 9 355 8.0 27.4 0.00 0.20 0.00 40 1004.8
20260503210025 10 318 8.0 27.4 0.00 0.99 0.00 40 1004.5
20260503205529 10 359 12.9 27.4 0.00 0.99 0.00 40 1004.5
20260503205014 10 283 14.5 24.1 0.00 0.99 0.00 39 1004.5
20260503204526 10 350 11.3 22.5 0.00 0.99 0.00 39 1004.4
20260503204513 10 327 9.7 22.5 0.00 0.20 0.00 39 1004.7
20260503204030 10 345 11.3 22.5 0.00 0.99 0.00 40 1004.4
20260503203514 10 2 12.9 22.5 0.00 0.99 0.00 39 1004.5
20260503203025 10 347 11.3 30.6 0.00 0.99 0.00 39 1004.4
20260503203015 10 351 9.7 30.6 0.00 0.20 0.00 39 1004.7
20260503202531 10 342 11.3 30.6 0.00 0.99 0.00 38 1004.4
20260503202015 10 308 11.3 20.9 0.00 0.99 0.00 39 1004.4
20260503201526 10 323 8.0 19.3 0.00 0.99 0.00 40 1004.4
20260503201518 10 319 8.0 19.3 0.00 0.20 0.00 40 1004.7
20260503201017 10 12 11.3 19.3 0.00 0.99 0.00 40 1004.4
20260503200523 10 4 9.7 19.3 0.00 0.99 0.00 39 1004.4
20260503200034 10 321 9.7 22.5 0.00 0.99 0.00 40 1004.4
20260503200020 9 347 8.0 22.5 0.00 0.20 0.00 40 1004.7
20260503195519 10 348 12.9 22.5 0.00 0.99 0.00 40 1004.4
20260503195024 10 300 8.0 22.5 0.00 0.99 0.00 39 1004.4
20260503194536 9 353 9.7 24.1 0.00 0.99 0.00 40 1004.3
20260503194522 9 327 9.7 24.1 0.00 0.20 0.00 40 1004.6
20260503194022 10 317 12.9 24.1 0.00 0.99 0.00 40 1004.2
20260503193527 10 318 8.0 17.7 0.00 0.99 0.00 42 1004.3
20260503193036 9 334 11.3 27.4 0.00 0.99 0.00 41 1004.3
20260503193023 9 353 11.3 27.4 0.00 0.20 0.00 41 1004.6
20260503192522 9 337 11.3 27.4 0.00 0.99 0.00 41 1004.3
20260503192026 9 286 9.7 25.7 0.00 0.99 0.00 41 1004.4
20260503191537 9 299 8.0 25.7 0.00 0.20 0.00 41 1004.6
20260503191511 9 350 6.4 25.7 0.00 0.99 0.00 41 1004.3
20260503191023 9 14 6.4 17.7 0.00 0.99 0.00 39 1004.5
20260503190529 10 343 8.0 17.7 0.00 0.99 0.00 39 1004.5
20260503190045 9 315 9.7 20.9 0.00 0.20 0.00 40 1004.8
20260503190013 10 314 11.3 20.9 0.00 0.99 0.00 40 1004.5
20260503185524 10 302 9.7 22.5 0.00 0.99 0.00 40 1004.4
20260503185027 9 323 11.3 24.1 0.00 0.99 0.00 40 1004.4
20260503184537 9 1 14.5 24.1 0.00 0.20 0.00 40 1004.7
20260503184512 10 303 14.5 24.1 0.00 0.99 0.00 40 1004.4
20260503184023 10 319 11.3 24.1 0.00 0.99 0.00 40 1004.4
20260503183529 10 301 11.3 24.1 0.00 0.99 0.00 40 1004.6
20260503183040 10 320 11.3 24.1 0.00 0.20 0.00 39 1004.9
20260503183012 10 313 9.7 24.1 0.00 0.99 0.00 39 1004.6
20260503182524 10 333 14.5 24.1 0.00 0.99 0.00 39 1004.5
20260503182026 10 350 9.7 27.4 0.00 0.99 0.00 40 1004.6
20260503181538 10 324 8.0 27.4 0.00 0.20 0.00 40 1004.8
20260503181512 10 307 6.4 27.4 0.00 0.99 0.00 40 1004.5
20260503181022 10 308 9.7 17.7 0.00 0.99 0.00 39 1004.6
20260503180528 10 336 8.0 22.5 0.00 0.99 0.00 41 1004.7
20260503180037 10 327 9.7 22.5 0.00 0.99 0.00 39 1004.8
20260503180025 9 320 8.0 22.5 0.00 0.20 0.00 39 1005.2
20260503175523 10 316 9.7 22.5 0.00 0.99 0.00 41 1004.7
20260503175028 10 327 9.7 20.9 0.00 0.99 0.00 39 1004.7
20260503174540 10 1 8.0 19.3 0.00 0.20 0.00 40 1005.0
20260503174513 10 305 9.7 25.7 0.00 0.99 0.00 39 1004.7
20260503174025 10 319 9.7 25.7 0.00 0.99 0.00 40 1004.7